Find Starlink 2704

NORAD ID: 48643 Int'l Des: 2021-044 Owner: SPXS Country: US Constellation: starlink operational
LEOCIRCULAR

当前视图

正在加载3D地球...

About Starlink 2704

Starlink 2704 (NORAD 48643) is a starlink constellation satellite (v1.0) launched May 26, 2021 by SPXS of US. It operates in LEO, CIRCULAR orbit with a mass of 260.00 kg.

关于 Starlink 2704

正在加载描述...

即将过境

Passes for default location (London). Set your location on the main map for personalized predictions.

高度历史

Loading altitude history...

两行轨道根数

1 48643U 21044F 26170.93613366 -.00002293 00000-0 -62163-4 0 9999
2 48643 53.1603 358.2041 0001150 90.9904 269.1230 15.31688875279492
Epoch: Jun 19, 2026 • Age: 11 hours

当前状态

高度 470.7 km
速度 7.63 km/s
星下点 14.05°N, 44.39°W
发射日期 May 26, 2021
运行时间 5 years
类型 internet

技术详情

分类 Payload
质量 260.00 kg
干质量 248.00 kg
总质量 260.00 kg
长度 0.20 m
直径 2.80 m
跨度 9.00 m
形状 Box + pan
制造商 SPXS
平台类型 Starlink
阶段状态 In Orbit
所有者/国家 SPXS/US

Most Searched